When you browse on this site, cookies collect data to enhance your experience and personalize the content and advertising you see.
Visit our Privacy Policy to learn more. By continuing to use the site, you agree to this use of cookies and data.
  • en Suisse
  • Liste des pays
  • À 7 jours
  • Température de l'eau
  • Carte satellitaire
  • Carte météo
  • Widgets météo
  • user-avatar
    Se connecter

    Météo par heure à Tovste

    Ce jour, 26 Avril, Vendredi

    Heure Température Précipitation Vent Pression Humidité
    00:00 +15°C° 0 mm 2 m/s 759 mmHg 48%
    01:00 +15°C° 0 mm 2 m/s 759 mmHg 52%
    02:00 +14°C° 0 mm 2 m/s 759 mmHg 57%
    03:00 +14°C° 0 mm 2 m/s 759 mmHg 58%
    04:00 +13°C° 0 mm 1 m/s 759 mmHg 60%
    05:00 +13°C° 0 mm 1 m/s 759 mmHg 61%
    06:00 +15°C° 0 mm 1 m/s 759 mmHg 57%
    07:00 +16°C° 0 mm 1 m/s 759 mmHg 53%
    08:00 +19°C° 0 mm 1 m/s 759 mmHg 49%
    09:00 +19°C° 0 mm 2 m/s 758 mmHg 46%
    10:00 +20°C° 0 mm 2 m/s 758 mmHg 43%
    11:00 +23°C° 0 mm 2 m/s 758 mmHg 40%
    12:00 +22°C° 0 mm 3 m/s 758 mmHg 38%
    13:00 +22°C° 0 mm 3 m/s 757 mmHg 37%
    14:00 +23°C° 0 mm 4 m/s 757 mmHg 35%
    15:00 +24°C° 0 mm 3 m/s 757 mmHg 35%
    16:00 +22°C° 0 mm 3 m/s 756 mmHg 35%
    17:00 +22°C° 0 mm 3 m/s 756 mmHg 35%
    18:00 +20°C° 0 mm 2 m/s 756 mmHg 37%
    19:00 +18°C° 0 mm 2 m/s 756 mmHg 39%
    20:00 +16°C° 0 mm 2 m/s 756 mmHg 41%
    21:00 +16°C° 0 mm 2 m/s 756 mmHg 44%
    22:00 +15°C° 0 mm 2 m/s 756 mmHg 47%
    23:00 +14°C° 0 mm 2 m/s 756 mmHg 51%

    Demain, 27 Avril, Samedi

    Heure Température Précipitation Vent Pression Humidité
    00:00 +14°C° 0 mm 2 m/s 756 mmHg 56%
    01:00 +13°C° 0 mm 2 m/s 756 mmHg 62%
    02:00 +13°C° 0 mm 2 m/s 756 mmHg 68%
    03:00 +12°C° 0 mm 2 m/s 756 mmHg 68%
    04:00 +12°C° 0 mm 2 m/s 755 mmHg 68%
    05:00 +10°C° 0 mm 2 m/s 755 mmHg 68%
    06:00 +13°C° 0 mm 2 m/s 755 mmHg 62%
    07:00 +14°C° 0 mm 3 m/s 755 mmHg 56%
    08:00 +16°C° 0 mm 3 m/s 755 mmHg 50%
    09:00 +18°C° 0 mm 4 m/s 754 mmHg 47%
    10:00 +19°C° 0 mm 4 m/s 754 mmHg 43%
    11:00 +20°C° 0 mm 5 m/s 754 mmHg 40%
    12:00 +21°C° 0 mm 5 m/s 754 mmHg 40%
    13:00 +22°C° 0 mm 5 m/s 753 mmHg 40%
    14:00 +22°C° 0 mm 5 m/s 753 mmHg 40%
    15:00 +22°C° 0 mm 4 m/s 752 mmHg 42%
    16:00 +22°C° 0 mm 4 m/s 752 mmHg 45%
    17:00 +22°C° 0 mm 4 m/s 752 mmHg 47%
    18:00 +20°C° 0 mm 3 m/s 752 mmHg 52%
    19:00 +19°C° 0 mm 3 m/s 751 mmHg 56%
    20:00 +18°C° 0 mm 2 m/s 751 mmHg 60%
    21:00 +17°C° 0 mm 3 m/s 751 mmHg 60%
    22:00 +17°C° 0 mm 4 m/s 751 mmHg 60%
    23:00 +15°C° 0 mm 4 m/s 751 mmHg 59%

    Après-demain, 28 Avril, Dimanche

    Heure Température Précipitation Vent Pression Humidité
    00:00 +14°C° 0 mm 4 m/s 751 mmHg 60%
    01:00 +14°C° 0 mm 4 m/s 751 mmHg 60%
    02:00 +13°C° 0 mm 4 m/s 751 mmHg 60%
    03:00 +12°C° 0 mm 4 m/s 750 mmHg 61%
    04:00 +12°C° 0 mm 4 m/s 750 mmHg 63%
    05:00 +11°C° 0 mm 3 m/s 750 mmHg 64%
    06:00 +12°C° 0 mm 4 m/s 750 mmHg 60%
    07:00 +14°C° 0 mm 4 m/s 750 mmHg 56%
    08:00 +15°C° 0 mm 5 m/s 750 mmHg 52%
    09:00 +16°C° 0 mm 5 m/s 750 mmHg 48%
    10:00 +19°C° 0 mm 5 m/s 750 mmHg 43%
    11:00 +21°C° 0 mm 5 m/s 750 mmHg 39%
    12:00 +22°C° 0 mm 5 m/s 749 mmHg 37%
    13:00 +22°C° 0 mm 5 m/s 749 mmHg 35%
    14:00 +23°C° 0 mm 5 m/s 749 mmHg 33%
    15:00 +23°C° 0 mm 4 m/s 749 mmHg 35%
    16:00 +24°C° 0 mm 3 m/s 748 mmHg 37%
    17:00 +24°C° 0 mm 3 m/s 748 mmHg 39%
    18:00 +21°C° 0 mm 3 m/s 749 mmHg 42%
    19:00 +19°C° 0 mm 2 m/s 749 mmHg 45%
    20:00 +17°C° 0 mm 2 m/s 749 mmHg 47%
    21:00 +17°C° 0 mm 2 m/s 749 mmHg 52%
    22:00 +16°C° 0 mm 2 m/s 749 mmHg 57%
    23:00 +15°C° 0 mm 2 m/s 749 mmHg 62%

    29 Avril, Lundi

    Heure Température Précipitation Vent Pression Humidité
    00:00 +14°C° 0 mm 1 m/s 749 mmHg 65%
    01:00 +14°C° 0 mm 1 m/s 749 mmHg 69%
    02:00 +13°C° 0 mm 1 m/s 749 mmHg 72%
    03:00 +13°C° 0 mm 1 m/s 749 mmHg 76%
    04:00 +13°C° 0 mm 1 m/s 749 mmHg 79%
    05:00 +13°C° 0 mm 1 m/s 750 mmHg 83%
    06:00 +14°C° 0 mm 2 m/s 750 mmHg 81%
    07:00 +14°C° 0 mm 4 m/s 750 mmHg 80%
    08:00 +15°C° 0 mm 5 m/s 750 mmHg 78%
    09:00 +14°C° 0 mm 6 m/s 751 mmHg 78%
    10:00 +14°C° 0 mm 6 m/s 751 mmHg 79%
    11:00 +12°C° 0 mm 7 m/s 751 mmHg 79%
    12:00 +12°C° 0 mm 7 m/s 751 mmHg 76%
    13:00 +12°C° 0 mm 8 m/s 751 mmHg 74%
    14:00 +13°C° 0 mm 8 m/s 751 mmHg 71%
    15:00 +12°C° 0 mm 8 m/s 750 mmHg 71%
    16:00 +12°C° 0 mm 7 m/s 750 mmHg 71%
    17:00 +12°C° 0 mm 7 m/s 750 mmHg 72%
    18:00 +11°C° 0 mm 7 m/s 750 mmHg 72%
    19:00 +10°C° 0 mm 7 m/s 750 mmHg 72%
    20:00 +10°C° 0 mm 7 m/s 750 mmHg 73%
    21:00 +9°C° 0.6 mm 6 m/s 750 mmHg 75%
    22:00 +9°C° 0.6 mm 6 m/s 750 mmHg 78%
    23:00 +8°C° 0.6 mm 5 m/s 750 mmHg 81%

    30 Avril, Mardi

    Heure Température Précipitation Vent Pression Humidité
    00:00 +8°C° 0.8 mm 5 m/s 750 mmHg 83%
    01:00 +8°C° 0.8 mm 6 m/s 749 mmHg 85%
    02:00 +8°C° 0.8 mm 6 m/s 749 mmHg 88%
    03:00 +8°C° 0.3 mm 5 m/s 749 mmHg 89%
    04:00 +8°C° 0.3 mm 5 m/s 748 mmHg 90%
    05:00 +8°C° 0.3 mm 5 m/s 748 mmHg 91%
    06:00 +8°C° 0.2 mm 4 m/s 748 mmHg 91%
    07:00 +8°C° 0.2 mm 4 m/s 748 mmHg 91%
    08:00 +8°C° 0.2 mm 4 m/s 748 mmHg 91%
    09:00 +11°C° 0 mm 4 m/s 747 mmHg 87%
    10:00 +12°C° 0 mm 4 m/s 747 mmHg 83%
    11:00 +13°C° 0 mm 4 m/s 747 mmHg 79%
    12:00 +13°C° 0 mm 4 m/s 747 mmHg 79%
    13:00 +13°C° 0 mm 4 m/s 746 mmHg 80%
    14:00 +13°C° 0 mm 5 m/s 746 mmHg 80%
    15:00 +13°C° 0 mm 5 m/s 746 mmHg 81%
    16:00 +13°C° 0 mm 5 m/s 745 mmHg 81%
    17:00 +13°C° 0 mm 5 m/s 745 mmHg 82%
    18:00 +12°C° 0 mm 5 m/s 745 mmHg 84%
    19:00 +10°C° 0 mm 5 m/s 745 mmHg 87%
    20:00 +9°C° 0 mm 5 m/s 745 mmHg 90%
    21:00 +10°C° 0 mm 4 m/s 745 mmHg 90%
    22:00 +8°C° 0 mm 4 m/s 745 mmHg 89%
    23:00 +8°C° 0 mm 4 m/s 745 mmHg 89%

    1 Mai, Mercredi

    Heure Température Précipitation Vent Pression Humidité
    00:00 +8°C° 0 mm 4 m/s 744 mmHg 89%
    01:00 +7°C° 0 mm 4 m/s 744 mmHg 89%
    02:00 +7°C° 0 mm 4 m/s 744 mmHg 89%
    03:00 +7°C° 0 mm 4 m/s 744 mmHg 89%
    04:00 +6°C° 0 mm 4 m/s 744 mmHg 89%
    05:00 +6°C° 0 mm 4 m/s 744 mmHg 90%
    06:00 +6°C° 0 mm 4 m/s 744 mmHg 88%
    07:00 +7°C° 0 mm 4 m/s 744 mmHg 86%
    08:00 +7°C° 0 mm 4 m/s 744 mmHg 84%
    09:00 +8°C° 0 mm 5 m/s 744 mmHg 82%
    10:00 +8°C° 0 mm 5 m/s 744 mmHg 79%
    11:00 +8°C° 0 mm 6 m/s 744 mmHg 77%
    12:00 +9°C° 0.1 mm 6 m/s 744 mmHg 75%
    13:00 +9°C° 0.1 mm 6 m/s 744 mmHg 73%
    14:00 +9°C° 0.1 mm 6 m/s 745 mmHg 72%
    15:00 +9°C° 0 mm 6 m/s 745 mmHg 69%
    16:00 +10°C° 0 mm 6 m/s 745 mmHg 66%
    17:00 +10°C° 0 mm 5 m/s 745 mmHg 64%
    18:00 +9°C° 0 mm 5 m/s 746 mmHg 67%
    19:00 +8°C° 0 mm 4 m/s 746 mmHg 71%
    20:00 +8°C° 0 mm 3 m/s 747 mmHg 74%
    21:00 +7°C° 0 mm 3 m/s 747 mmHg 77%
    22:00 +7°C° 0 mm 3 m/s 747 mmHg 79%
    23:00 +5°C° 0 mm 3 m/s 747 mmHg 82%
    Voir plus